Flag for U.S.A. Weather past 2 weeks in Columbus, Georgia, U.S.A.

Now
69 °F

Sunny.


Feels Like: 69 °F
Forecast: 44 / 69 °F
Wind: 6 mph from North

Location: Columbus Metropolitan Airport

Current Time: Oct 23, 2014 at 3:11:47 PM

Latest Report: Oct 23, 2014 at 2:51 PM


Visibility: 10 mi

Pressure: 30.04 "Hg

Humidity: 38%

Dew point: 42 °F

Location of ColumbusLocation

Historic Weather in Columbus — Graph

°F

Columbus temperature yesterday

Maximum temperature yesterday: 72 °F (at 4:51 PM)
Minimum temperature yesterday: 51 °F (at 7:51 AM)
Average temperature yesterday: 60 °F

Past Weeks' High & Low Weather Summary

 TemperatureHumidityPressure
High90 °F (Oct 9, 3:51 PM)100% (Oct 14, 4:00 AM)30.15 "Hg (Oct 14, 4:00 AM)
Low46 °F (Oct 23, 6:51 AM)31% (Oct 22, 4:51 PM)29.78 "Hg (Oct 14, 11:51 AM)
Average68 °F67%30.00 "Hg
* Reported Oct 8 1:51 PM — Oct 23 1:51 PM, Columbus, Weather by CustomWeather, © 2014

Note: Actual official high and low records may vary slightly from our data, if they occured in-between our weather recording intervals... More about our weather records

Advertising

Columbus weather history for previous 24 hours

 ConditionsComfort  
Time TempWeatherWind HumidityBarometerVisibility
1:51 PM
Oct 23
68 °FSunny.3 mph40%30.08 "Hg10 mi
12:51 PM65 °FSunny.No wind47%30.11 "Hg10 mi
11:51 AM61 °FSunny.No wind54%30.13 "Hg10 mi
10:51 AM57 °FSunny.7 mph60%30.14 "Hg10 mi
9:51 AM54 °FSunny.7 mph67%30.14 "Hg10 mi
8:51 AM50 °FSunny.No wind74%N/A10 mi
7:51 AM46 °FClear.No wind83%30.12 "Hg10 mi
6:51 AM46 °FClear.No wind83%30.09 "Hg10 mi
5:51 AM47 °FClear.No wind83%30.08 "Hg10 mi
4:51 AM47 °FClear.No wind83%30.06 "Hg10 mi
3:51 AM49 °FClear.No wind77%30.07 "Hg10 mi
2:51 AM50 °FClear.3 mph74%30.08 "Hg10 mi
1:51 AM52 °FClear.No wind69%30.08 "Hg10 mi
12:51 AM54 °FClear.No wind64%30.09 "Hg10 mi
11:51 PM
Oct 22
55 °FClear.7 mph64%30.10 "Hg10 mi
10:51 PM57 °FClear.7 mph62%30.10 "Hg10 mi
9:51 PM59 °FClear.5 mph60%30.09 "Hg10 mi
8:51 PM58 °FClear.No wind67%30.08 "Hg10 mi
7:51 PM62 °FSunny.3 mph56%30.06 "Hg10 mi
6:51 PM68 °FSunny.3 mph38%30.05 "Hg10 mi
5:51 PM70 °FSunny.7 mph34%30.03 "Hg10 mi
4:51 PM72 °FSunny.9 mph31%30.03 "Hg10 mi
3:51 PM71 °FSunny.9 mph34%30.04 "Hg10 mi
Weather by CustomWeather, © 2014

See weather overviewHow to use our weather pages